TimePST,TemperatureF,Dew PointF,Humidity,Sea Level PressureIn,VisibilityMPH,Wind Direction,Wind SpeedMPH,Gust SpeedMPH,PrecipitationIn,Events,Conditions,WindDirDegrees,DateUTC
12:00 AM,46.0,42.3,87,30.12,-9999.0,North,29.9,-,N/A,,Unknown,0,2013-01-08 08:00:00
1:00 AM,46.0,41.7,85,30.11,-9999.0,North,32.2,-,N/A,,Unknown,0,2013-01-08 09:00:00
2:00 AM,45.3,41.4,86,30.12,-9999.0,North,34.5,-,N/A,,Unknown,0,2013-01-08 10:00:00
4:00 AM,45,38,70,30.10,,Calm,Calm,,,,,90,2013-01-08 12:00:00
4:00 AM,45.0,38.3,77,30.10,-9999.0,North,10.4,-,N/A,,Unknown,0,2013-01-08 12:00:00
5:00 AM,44.4,37.9,78,30.07,-9999.0,North,10.4,-,N/A,,Unknown,0,2013-01-08 13:00:00
6:00 AM,43.9,38.5,81,30.04,-9999.0,North,9.2,-,N/A,,Unknown,0,2013-01-08 14:00:00
7:00 AM,41.5,38.8,90,30.01,-9999.0,North,6.9,-,0.05,,Unknown,0,2013-01-08 15:00:00
8:00 AM,40.6,38.3,91,29.98,-9999.0,North,6.9,-,0.05,,Unknown,0,2013-01-08 16:00:00
9:00 AM,40.8,38.5,91,29.96,-9999.0,North,10.4,-,0.05,,Unknown,0,2013-01-08 17:00:00
10:00 AM,40,38,89,29.91,,Calm,Calm,,,,,80,2013-01-08 18:00:00
10:00 AM,40.3,37.9,91,29.91,-9999.0,North,9.2,-,0.04,,Unknown,0,2013-01-08 18:00:00
11:00 AM,40.6,37.9,90,29.86,-9999.0,North,9.2,-,0.07,,Unknown,0,2013-01-08 19:00:00
12:00 PM,41.2,38.8,91,29.82,-9999.0,North,8.1,-,0.10,,Unknown,0,2013-01-08 20:00:00
1:00 PM,42.3,40.1,92,29.79,-9999.0,North,5.8,-,0.12,,Unknown,0,2013-01-08 21:00:00
2:00 PM,42.3,40.5,93,29.76,-9999.0,North,11.5,-,0.07,,Unknown,0,2013-01-08 22:00:00
3:00 PM,42.3,40.6,94,29.71,-9999.0,North,11.5,-,0.04,,Unknown,0,2013-01-08 23:00:00
4:00 PM,45,44,94,29.68,,Calm,Calm,,,,,330,2013-01-09 00:00:00
4:00 PM,45.1,43.9,95,29.68,-9999.0,North,38.0,-,0.12,,Unknown,0,2013-01-09 00:00:00
5:00 PM,48.0,46.8,95,29.66,-9999.0,North,34.5,-,0.18,,Unknown,0,2013-01-09 01:00:00
6:00 PM,49.1,47.3,93,29.63,-9999.0,North,33.4,-,0.08,,Unknown,0,2013-01-09 02:00:00
8:00 PM,51.1,47.3,87,29.62,-9999.0,North,29.9,-,N/A,,Unknown,0,2013-01-09 04:00:00
9:00 PM,48.7,47.3,95,29.61,-9999.0,North,31.1,-,0.03,,Unknown,0,2013-01-09 05:00:00
10:00 PM,47,46,92,29.61,,Calm,Calm,,,,,280,2013-01-09 06:00:00
10:00 PM,46.9,45.5,95,29.61,-9999.0,North,32.2,-,0.12,,Unknown,0,2013-01-09 06:00:00
11:00 PM,46.6,44.2,92,29.65,-9999.0,North,32.2,-,0.11,,Unknown,0,2013-01-09 07:00:00